TPC142 KORL-KMLB

Flight info

Callsign TPC142
Flight time 0h 17m
Altitude 15000
Route ORL OVIDO MLB
Aircraft HDJT/L-SABDGRWY/H

Departure

Time 2026-05-05 01:46
Airport Orlando Executive Airport (KORL)

Arrival

Time 2026-05-05 02:03
Airport Melbourne Orlando International Airport (KMLB)
Time Latitude Longitude Altitude Speed Heading
2026-05-05 01:26 28.54805 -81.33830 116 ft 0 kts 36°
2026-05-05 01:37 28.54806 -81.33829 116 ft 0 kts 49°
2026-05-05 01:38 28.54796 -81.33821 114 ft 8 kts 158°
2026-05-05 01:38 28.54735 -81.33798 113 ft 11 kts 133°
2026-05-05 01:38 28.54683 -81.33729 112 ft 11 kts 133°
2026-05-05 01:38 28.54632 -81.33662 111 ft 12 kts 131°
2026-05-05 01:39 28.54582 -81.33600 111 ft 9 kts 149°
2026-05-05 01:39 28.54534 -81.33664 109 ft 15 kts 250°
2026-05-05 01:39 28.54494 -81.33768 109 ft 14 kts 247°
2026-05-05 01:39 28.54438 -81.33856 109 ft 14 kts 220°
2026-05-05 01:40 28.54405 -81.33887 108 ft 0 kts 220°
2026-05-05 01:43 28.54387 -81.33904 108 ft 7 kts 225°
2026-05-05 01:43 28.54375 -81.33916 107 ft 0 kts 217°
2026-05-05 01:45 28.54320 -81.33916 106 ft 13 kts 135°
2026-05-05 01:46 28.54364 -81.33714 107 ft 58 kts 66°
2026-05-05 01:46 28.54639 -81.33011 232 ft 118 kts 64°
2026-05-05 01:46 28.55021 -81.32119 723 ft 129 kts 71°
2026-05-05 01:46 28.55436 -81.31214 1446 ft 137 kts 51°
2026-05-05 01:47 28.56189 -81.30303 1491 ft 179 kts 51°
2026-05-05 01:47 28.57037 -81.29146 1469 ft 196 kts 54°
2026-05-05 01:47 28.57863 -81.27919 1468 ft 195 kts 55°
2026-05-05 01:47 28.58690 -81.26670 1467 ft 207 kts 55°
2026-05-05 01:48 28.59563 -81.25363 2175 ft 204 kts 54°
2026-05-05 01:48 28.60436 -81.24060 2942 ft 218 kts 55°
2026-05-05 01:48 28.61417 -81.22576 2971 ft 246 kts 57°
2026-05-05 01:48 28.62322 -81.20882 2973 ft 251 kts 62°
2026-05-05 01:49 28.63155 -81.19148 2978 ft 250 kts 64°
2026-05-05 01:49 28.63592 -81.17273 3066 ft 239 kts 92°
2026-05-05 01:49 28.63151 -81.15566 3645 ft 217 kts 116°
2026-05-05 01:49 28.62271 -81.14193 4585 ft 219 kts 137°
2026-05-05 01:50 28.60940 -81.13199 4978 ft 246 kts 157°
2026-05-05 01:50 28.59265 -81.12430 4982 ft 270 kts 160°
2026-05-05 01:50 28.57517 -81.11586 4988 ft 273 kts 157°
2026-05-05 01:50 28.55838 -81.10590 4990 ft 274 kts 149°
2026-05-05 01:51 28.54282 -81.09319 4988 ft 276 kts 145°
2026-05-05 01:51 28.52726 -81.08039 4989 ft 276 kts 148°
2026-05-05 01:51 28.51123 -81.06847 4989 ft 275 kts 149°
2026-05-05 01:51 28.49518 -81.05666 4993 ft 274 kts 148°
2026-05-05 01:52 28.47932 -81.04463 4994 ft 274 kts 148°
2026-05-05 01:52 28.46349 -81.03256 4979 ft 274 kts 148°
2026-05-05 01:52 28.44760 -81.02057 4976 ft 273 kts 148°
2026-05-05 01:52 28.43172 -81.00860 4977 ft 274 kts 148°
2026-05-05 01:53 28.41609 -80.99681 4976 ft 274 kts 147°
2026-05-05 01:53 28.40019 -80.98479 4976 ft 274 kts 148°
2026-05-05 01:53 28.38427 -80.97278 4875 ft 275 kts 148°
2026-05-05 01:53 28.36840 -80.96083 4494 ft 272 kts 147°
2026-05-05 01:54 28.35280 -80.94907 4122 ft 264 kts 146°
2026-05-05 01:54 28.33772 -80.93770 3774 ft 257 kts 145°
2026-05-05 01:54 28.32291 -80.92655 3402 ft 254 kts 144°
2026-05-05 01:54 28.30816 -80.91543 3027 ft 254 kts 144°
2026-05-05 01:55 28.29345 -80.90437 2647 ft 253 kts 143°
2026-05-05 01:55 28.27879 -80.89333 2270 ft 253 kts 143°
2026-05-05 01:55 28.26421 -80.88237 1894 ft 251 kts 142°
2026-05-05 01:55 28.24963 -80.87141 1587 ft 251 kts 143°
2026-05-05 01:56 28.23493 -80.86057 1580 ft 252 kts 144°
2026-05-05 01:56 28.22034 -80.84977 1581 ft 250 kts 143°
2026-05-05 01:56 28.20620 -80.83949 1577 ft 228 kts 144°
2026-05-05 01:56 28.19359 -80.83039 1574 ft 203 kts 144°
2026-05-05 01:57 28.18224 -80.82230 1566 ft 182 kts 143°
2026-05-05 01:57 28.17192 -80.81524 1557 ft 164 kts 144°
2026-05-05 01:57 28.16253 -80.80896 1554 ft 152 kts 144°
2026-05-05 01:57 28.15360 -80.80296 1552 ft 145 kts 144°
2026-05-05 01:58 28.14489 -80.79696 1506 ft 148 kts 143°
2026-05-05 01:58 28.13604 -80.79092 1464 ft 145 kts 143°
2026-05-05 01:58 28.12821 -80.78574 1450 ft 118 kts 144°
2026-05-05 01:58 28.12161 -80.78158 1454 ft 106 kts 144°
2026-05-05 01:59 28.11509 -80.77754 1445 ft 106 kts 144°
2026-05-05 01:59 28.10904 -80.77295 1448 ft 104 kts 135°
2026-05-05 01:59 28.10363 -80.76758 1455 ft 103 kts 128°
2026-05-05 01:59 28.09902 -80.76145 1452 ft 102 kts 121°
2026-05-05 02:00 28.09789 -80.75395 1451 ft 99 kts 90°
2026-05-05 02:00 28.09774 -80.74616 1414 ft 99 kts 89°
2026-05-05 02:00 28.09786 -80.73837 1298 ft 99 kts 89°
2026-05-05 02:00 28.09809 -80.73059 1177 ft 99 kts 88°
2026-05-05 02:01 28.09834 -80.72281 1055 ft 98 kts 85°
2026-05-05 02:01 28.09869 -80.71495 936 ft 103 kts 85°
2026-05-05 02:01 28.09907 -80.70692 815 ft 101 kts 85°
2026-05-05 02:01 28.09946 -80.69876 694 ft 108 kts 88°
2026-05-05 02:02 28.09989 -80.69015 551 ft 109 kts 88°
2026-05-05 02:02 28.10028 -80.68172 423 ft 106 kts 85°
2026-05-05 02:02 28.10071 -80.67355 317 ft 103 kts 84°
2026-05-05 02:02 28.10122 -80.66534 181 ft 105 kts 89°
2026-05-05 02:03 28.10154 -80.65715 47 ft 103 kts 86°
2026-05-05 02:03 28.10193 -80.64895 36 ft 105 kts 86°
2026-05-05 02:03 28.10233 -80.64060 27 ft 100 kts 86°
2026-05-05 02:03 28.10249 -80.63646 27 ft 30 kts 87°
2026-05-05 02:04 28.10265 -80.63334 27 ft 35 kts 88°
2026-05-05 02:04 28.10275 -80.63168 26 ft 9 kts 85°
2026-05-05 02:04 28.10278 -80.63116 26 ft 16 kts 85°
2026-05-05 02:04 28.10306 -80.62978 26 ft 18 kts 16°
2026-05-05 02:05 28.10397 -80.62981 26 ft 5 kts 15°
2026-05-05 02:05 28.10448 -80.62941 26 ft 6 kts 38°
2026-05-05 02:05 28.10469 -80.62912 27 ft 1 kts 90°
2026-05-05 02:05 28.10453 -80.62882 27 ft 13 kts 144°
2026-05-05 02:06 28.10443 -80.62876 27 ft 2 kts 199°
2026-05-05 02:06 28.10439 -80.62880 27 ft 0 kts 219°